W5CGC Weather Reports


Display with metric or nautical units.
time (UTC)temp
F
wind
direction
speed
MPH
gust
MPH
rain 1hr
in
rain 24hr
in
rain mn
in
humidity
%
barometer
mb
20181218210130 63 84 3.0 5.0 0.00 0.00 0.00 47 1015.8
20181218204553 62 128 1.0 6.0 0.00 0.00 0.00 47 1016.1
20181218203107 62 188 3.0 7.0 0.00 0.00 0.00 46 1016.3
20181218201620 62 134 2.0 5.0 0.00 0.00 0.00 48 1016.5
20181218200055 61 105 1.0 4.0 0.00 0.00 0.00 52 1016.5
20181218194601 59 90 1.0 4.0 0.00 0.00 0.00 55 1017.0
20181218193035 57 47 1.0 4.0 0.00 0.00 0.00 56 1017.2
20181218191522 58 48 1.0 5.0 0.00 0.00 0.00 53 1017.5
20181218190024 59 144 2.0 5.0 0.00 0.00 0.00 51 1017.9
20181218184519 60 124 0.0 5.0 0.00 0.00 0.00 53 1018.5
20181218183033 59 148 2.0 6.0 0.00 0.00 0.00 55 1019.0
20181218181507 58 127 1.0 6.0 0.00 0.00 0.00 56 1019.3
20181218180256 57 127 1.0 5.0 0.00 0.00 0.00 60 1019.6
20181218174742 56 153 2.0 7.0 0.00 0.00 0.00 64 1020.0
20181218173115 54 115 1.0 5.0 0.00 0.00 0.00 67 1020.5
20181218171720 53 135 2.0 6.0 0.00 0.00 0.00 70 1020.7
20181218170143 53 156 1.0 5.0 0.00 0.00 0.00 71 1021.0
20181218164622 52 96 2.0 4.0 0.00 0.00 0.00 74 1021.2
20181218163053 51 132 1.0 4.0 0.00 0.00 0.00 76 1021.3
20181218161604 49 159 1.0 5.0 0.00 0.00 0.00 81 1021.4
20181218160037 47 38 1.0 3.0 0.00 0.00 0.00 90 1021.5
20181218154548 44 47 1.0 2.0 0.00 0.00 0.00 92 1021.6
20181218153040 43 67 1.0 2.0 0.00 0.00 0.00 95 1021.7
20181218151554 42 206 0.0 0.0 0.00 0.00 0.00 95 1021.6
20181218150021 40 210 0.0 1.0 0.00 0.00 0.00 95 1021.6
20181218144534 38 210 0.0 1.0 0.00 0.00 0.00 95 1021.2
20181218143035 35 210 0.0 0.0 0.00 0.00 0.00 95 1021.2
20181218141538 35 210 0.0 0.0 0.00 0.00 0.00 95 1020.9
20181218140033 34 210 0.0 0.0 0.00 0.00 0.00 95 1020.8
20181218134542 34 210 0.0 0.0 0.00 0.00 0.00 95 1020.7
20181218133034 34 210 0.0 0.0 0.00 0.00 0.00 95 1020.8
20181218131524 34 210 0.0 0.0 0.00 0.00 0.00 95 1020.8
20181218130043 34 211 0.0 0.0 0.00 0.00 0.00 95 1020.6
20181218124553 34 210 0.0 0.0 0.00 0.00 0.00 95 1020.4
20181218123013 33 210 0.0 0.0 0.00 0.00 0.00 95 1020.4
20181218121522 33 210 0.0 0.0 0.00 0.00 0.00 95 1020.3
20181218120015 33 211 0.0 0.0 0.00 0.00 0.00 95 1020.2
20181218114516 34 210 0.0 0.0 0.00 0.00 0.00 95 1020.1
20181218113008 34 211 0.0 0.0 0.00 0.00 0.00 95 1020.1
20181218111506 34 210 0.0 0.0 0.00 0.00 0.00 95 1020.2
20181218110001 35 211 0.0 0.0 0.00 0.00 0.00 94 1020.3
20181218104810 35 211 0.0 0.0 0.00 0.00 0.00 95 1020.4
20181218103234 35 210 0.0 0.0 0.00 0.00 0.00 94 1020.3
20181218101709 35 210 0.0 0.0 0.00 0.00 0.00 94 1020.6
20181218100142 36 210 0.0 0.0 0.00 0.00 0.00 94 1020.5
20181218094728 36 210 0.0 0.0 0.00 0.00 0.00 94 1020.7
20181218093150 36 210 0.0 0.0 0.00 0.00 0.00 94 1020.8
20181218091624 37 210 0.0 0.0 0.00 0.00 0.00 94 1020.7
20181218090104 38 211 0.0 0.0 0.00 0.00 0.00 94 1020.9
20181218084626 38 211 0.0 0.0 0.00 0.00 0.00 94 1021.0
20181218083120 38 211 0.0 0.0 0.00 0.00 0.00 94 1021.2
20181218081637 38 210 0.0 0.0 0.00 0.00 0.00 94 1021.3
20181218080135 39 210 0.0 0.0 0.00 0.00 0.00 94 1021.2
20181218074631 39 210 0.0 1.0 0.00 0.00 0.00 94 1021.2
20181218073131 39 210 0.0 0.0 0.00 0.00 0.00 94 1021.3
20181218071559 39 210 0.0 0.0 0.00 0.00 0.00 93 1021.4
20181218070104 39 211 0.0 0.0 0.00 0.00 0.00 91 1021.5
20181218064543 40 210 0.0 0.0 0.00 0.00 0.00 90 1021.5
20181218063100 41 187 0.0 0.0 0.00 0.00 0.00 90 1021.6
20181218061604 41 187 0.0 0.0 0.00 0.00 0.00 90 1021.5
20181218060050 42 187 0.0 0.0 0.00 0.00 0.00 89 1021.6
20181218054528 42 187 0.0 0.0 0.00 0.00 0.00 90 1021.7
20181218053052 42 187 0.0 0.0 0.00 0.00 0.00 88 1022.2
20181218051528 42 188 0.0 1.0 0.00 0.00 0.00 88 1022.3
20181218050036 43 181 0.0 1.0 0.00 0.00 0.00 89 1022.2
20181218044552 43 182 0.0 0.0 0.00 0.00 0.00 87 1022.5
20181218043032 43 182 0.0 0.0 0.00 0.00 0.00 86 1022.3
20181218041533 44 182 0.0 1.0 0.00 0.00 0.00 86 1022.3
20181218040110 44 171 0.0 1.0 0.00 0.00 0.00 87 1022.0
20181218034548 44 238 0.0 1.0 0.00 0.00 0.00 85 1022.1
20181218033023 44 1 0.0 1.0 0.00 0.00 0.00 89 1022.0
20181218031515 44 1 0.0 1.0 0.00 0.00 0.00 85 1022.4
20181218030016 43 1 0.0 0.0 0.00 0.00 0.00 85 1022.5
20181218024512 43 1 0.0 1.0 0.00 0.00 0.00 84 1022.6
20181218023035 43 360 0.0 1.0 0.00 0.00 0.00 83 1023.0
20181218021548 42 360 0.0 1.0 0.00 0.00 0.00 82 1023.3
20181218020009 43 360 0.0 1.0 0.00 0.00 0.00 80 1023.3
20181218014506 43 360 0.0 1.0 0.00 0.00 0.00 79 1023.4
20181218013036 44 360 0.0 1.0 0.00 0.00 0.00 79 1023.2
20181218011512 45 47 0.0 1.0 0.00 0.00 0.00 78 1023.2
20181218010003 45 51 0.0 1.0 0.00 0.00 0.00 77 1022.9
20181218004506 46 51 0.0 0.0 0.00 0.00 0.00 75 1023.1
20181218003005 47 51 0.0 1.0 0.00 0.00 0.00 74 1023.0
20181218001501 48 51 0.0 1.0 0.00 0.00 0.00 72 1022.8
20181218000137 49 51 0.0 0.0 0.00 0.00 0.00 70 1022.9
20181217234704 50 51 0.0 0.0 0.00 0.00 0.00 69 1022.8
20181217233218 51 49 0.0 1.0 0.00 0.00 0.00 68 1022.7
20181217231658 52 49 0.0 1.0 0.00 0.00 0.00 65 1022.7
20181217230157 52 37 0.0 1.0 0.00 0.00 0.00 64 1022.5
20181217224645 53 332 0.0 2.0 0.00 0.00 0.00 60 1022.8
20181217223127 53 13 0.0 1.0 0.00 0.00 0.00 59 1022.9
20181217221652 53 53 0.0 2.0 0.00 0.00 0.00 60 1023.0
20181217220151 54 13 0.0 2.0 0.00 0.00 0.00 60 1023.0
20181217214744 54 273 0.0 1.0 0.00 0.00 0.00 58 1023.0
20181217213157 54 278 0.0 2.0 0.00 0.00 0.00 57 1023.2
20181217211635 54 102 0.0 2.0 0.00 0.00 0.00 58 1023.3